When you browse on this site, cookies collect data to enhance your experience and personalize the content and advertising you see.
Visit our Privacy Policy to learn more. By continuing to use the site, you agree to this use of cookies and data.

Hourly Weather Essen

Today, 11 August, Tuesday

Time Temperature Precipitation Wind Pressure Humidity
00:00 +24°C° 0.1 mm 1 mps 754 mmHg 77%
01:00 +24°C° 0 mm 1 mps 754 mmHg 78%
02:00 +24°C° 0 mm 1 mps 753 mmHg 78%
03:00 +23°C° 0 mm 2 mps 753 mmHg 79%
04:00 +24°C° 0 mm 2 mps 753 mmHg 78%
05:00 +24°C° 0 mm 2 mps 753 mmHg 76%
06:00 +24°C° 0 mm 2 mps 753 mmHg 75%
07:00 +26°C° 0 mm 2 mps 754 mmHg 68%
08:00 +28°C° 0 mm 2 mps 754 mmHg 61%
09:00 +30°C° 0 mm 2 mps 754 mmHg 55%
10:00 +31°C° 0 mm 2 mps 754 mmHg 50%
11:00 +34°C° 0 mm 2 mps 754 mmHg 45%
12:00 +35°C° 0 mm 2 mps 753 mmHg 39%
13:00 +35°C° 0 mm 2 mps 753 mmHg 40%
14:00 +35°C° 0 mm 3 mps 753 mmHg 40%
15:00 +35°C° 0 mm 3 mps 753 mmHg 40%
16:00 +34°C° 0.2 mm 3 mps 753 mmHg 44%
17:00 +33°C° 0.2 mm 3 mps 753 mmHg 48%
18:00 +31°C° 0.2 mm 3 mps 753 mmHg 52%
19:00 +29°C° 0.4 mm 3 mps 753 mmHg 56%
20:00 +28°C° 0.4 mm 3 mps 753 mmHg 60%
21:00 +27°C° 0.4 mm 3 mps 753 mmHg 65%
22:00 +27°C° 0 mm 3 mps 753 mmHg 66%
23:00 +26°C° 0 mm 3 mps 753 mmHg 67%

Tomorrow, 12 August, Wednesday

Time Temperature Precipitation Wind Pressure Humidity
00:00 +26°C° 0 mm 3 mps 753 mmHg 69%
01:00 +25°C° 0 mm 3 mps 753 mmHg 71%
02:00 +25°C° 0 mm 2 mps 753 mmHg 72%
03:00 +24°C° 0 mm 2 mps 753 mmHg 74%
04:00 +25°C° 0 mm 2 mps 753 mmHg 73%
05:00 +25°C° 0 mm 2 mps 753 mmHg 72%
06:00 +25°C° 0 mm 3 mps 753 mmHg 71%
07:00 +27°C° 0 mm 3 mps 753 mmHg 65%
08:00 +29°C° 0 mm 3 mps 753 mmHg 59%
09:00 +30°C° 0 mm 3 mps 753 mmHg 53%
10:00 +31°C° 0 mm 3 mps 753 mmHg 50%
11:00 +33°C° 0 mm 3 mps 752 mmHg 47%
12:00 +35°C° 0 mm 3 mps 752 mmHg 43%
13:00 +35°C° 0 mm 3 mps 752 mmHg 43%
14:00 +35°C° 0 mm 3 mps 752 mmHg 42%
15:00 +35°C° 0 mm 3 mps 752 mmHg 42%
16:00 +34°C° 0 mm 3 mps 752 mmHg 46%
17:00 +33°C° 0 mm 3 mps 751 mmHg 49%
18:00 +31°C° 0 mm 3 mps 751 mmHg 53%
19:00 +30°C° 0.2 mm 2 mps 751 mmHg 57%
20:00 +29°C° 0.2 mm 2 mps 751 mmHg 61%
21:00 +28°C° 0.2 mm 2 mps 751 mmHg 65%
22:00 +27°C° 0.1 mm 2 mps 751 mmHg 67%
23:00 +27°C° 0.1 mm 2 mps 751 mmHg 69%

Day after tomorrow, 13 August, Thursday

Time Temperature Precipitation Wind Pressure Humidity
00:00 +26°C° 0.1 mm 2 mps 751 mmHg 71%
01:00 +26°C° 0 mm 2 mps 751 mmHg 72%
02:00 +25°C° 0 mm 1 mps 751 mmHg 73%
03:00 +25°C° 0 mm 1 mps 751 mmHg 75%
04:00 +25°C° 0 mm 1 mps 751 mmHg 74%
05:00 +26°C° 0 mm 1 mps 751 mmHg 73%
06:00 +26°C° 0 mm 1 mps 750 mmHg 72%
07:00 +28°C° 0 mm 2 mps 751 mmHg 66%
08:00 +29°C° 0 mm 2 mps 751 mmHg 60%
09:00 +31°C° 0 mm 2 mps 751 mmHg 54%
10:00 +32°C° 0.1 mm 2 mps 751 mmHg 49%
11:00 +35°C° 0.1 mm 3 mps 751 mmHg 44%
12:00 +36°C° 0.1 mm 3 mps 751 mmHg 40%
13:00 +36°C° 0 mm 3 mps 750 mmHg 40%
14:00 +35°C° 0 mm 4 mps 750 mmHg 40%
15:00 +35°C° 0 mm 4 mps 750 mmHg 41%
16:00 +34°C° 0 mm 4 mps 750 mmHg 45%
17:00 +32°C° 0 mm 4 mps 750 mmHg 49%
18:00 +30°C° 0 mm 3 mps 750 mmHg 53%
19:00 +29°C° 0 mm 3 mps 751 mmHg 55%
20:00 +28°C° 0 mm 3 mps 751 mmHg 58%
21:00 +27°C° 0 mm 2 mps 751 mmHg 60%
22:00 +26°C° 0 mm 2 mps 751 mmHg 62%
23:00 +26°C° 0 mm 2 mps 751 mmHg 63%

14 August, Friday

Time Temperature Precipitation Wind Pressure Humidity
00:00 +25°C° 0 mm 2 mps 752 mmHg 65%
01:00 +25°C° 0 mm 2 mps 752 mmHg 66%
02:00 +24°C° 0 mm 1 mps 751 mmHg 68%
03:00 +22°C° 0 mm 0 mps 751 mmHg 70%
04:00 +24°C° 0 mm 1 mps 751 mmHg 69%
05:00 +24°C° 0 mm 1 mps 751 mmHg 68%
06:00 +25°C° 0 mm 1 mps 751 mmHg 67%
07:00 +26°C° 0 mm 2 mps 752 mmHg 62%
08:00 +27°C° 0 mm 3 mps 752 mmHg 57%
09:00 +28°C° 0 mm 3 mps 752 mmHg 52%
10:00 +28°C° 0.2 mm 4 mps 752 mmHg 53%
11:00 +28°C° 0.2 mm 4 mps 752 mmHg 53%
12:00 +28°C° 0.2 mm 4 mps 752 mmHg 54%
13:00 +28°C° 0 mm 4 mps 752 mmHg 56%
14:00 +27°C° 0 mm 3 mps 752 mmHg 58%
15:00 +27°C° 0 mm 3 mps 751 mmHg 60%
16:00 +26°C° 0.1 mm 3 mps 751 mmHg 62%
17:00 +26°C° 0.1 mm 3 mps 751 mmHg 64%
18:00 +25°C° 0.1 mm 2 mps 751 mmHg 66%
19:00 +25°C° 0.1 mm 2 mps 752 mmHg 69%
20:00 +24°C° 0.1 mm 2 mps 752 mmHg 72%
21:00 +23°C° 0.1 mm 2 mps 752 mmHg 75%
22:00 +23°C° 0 mm 2 mps 752 mmHg 77%
23:00 +21°C° 0 mm 2 mps 752 mmHg 79%

15 August, Saturday

Time Temperature Precipitation Wind Pressure Humidity
00:00 +21°C° 0 mm 2 mps 752 mmHg 81%
01:00 +21°C° 0 mm 2 mps 752 mmHg 83%
02:00 +20°C° 0 mm 2 mps 752 mmHg 84%
03:00 +21°C° 0 mm 1 mps 752 mmHg 85%
04:00 +20°C° 0 mm 2 mps 752 mmHg 84%
05:00 +21°C° 0 mm 2 mps 752 mmHg 83%
06:00 +21°C° 0 mm 2 mps 752 mmHg 81%
07:00 +23°C° 0.1 mm 2 mps 753 mmHg 76%
08:00 +24°C° 0.1 mm 2 mps 753 mmHg 71%
09:00 +25°C° 0.1 mm 2 mps 753 mmHg 65%
10:00 +26°C° 0.2 mm 2 mps 753 mmHg 61%
11:00 +27°C° 0.2 mm 2 mps 753 mmHg 56%
12:00 +28°C° 0.2 mm 2 mps 753 mmHg 52%
13:00 +28°C° 0.1 mm 2 mps 753 mmHg 50%
14:00 +29°C° 0.1 mm 2 mps 753 mmHg 48%
15:00 +29°C° 0.1 mm 2 mps 752 mmHg 46%
16:00 +28°C° 0 mm 2 mps 752 mmHg 49%
17:00 +28°C° 0 mm 1 mps 752 mmHg 52%
18:00 +27°C° 0 mm 1 mps 753 mmHg 54%
19:00 +26°C° 0 mm 1 mps 753 mmHg 60%
20:00 +25°C° 0 mm 1 mps 753 mmHg 65%
21:00 +23°C° 0 mm 1 mps 753 mmHg 70%
22:00 +23°C° 0 mm 1 mps 753 mmHg 72%
23:00 +23°C° 0 mm 1 mps 753 mmHg 73%

16 August, Sunday

Time Temperature Precipitation Wind Pressure Humidity
00:00 +22°C° 0 mm 1 mps 753 mmHg 75%
01:00 +22°C° 0 mm 1 mps 753 mmHg 75%
02:00 +22°C° 0 mm 1 mps 753 mmHg 76%
03:00 +22°C° 0 mm 1 mps 753 mmHg 77%
04:00 +22°C° 0 mm 1 mps 753 mmHg 75%
05:00 +22°C° 0 mm 1 mps 753 mmHg 73%
06:00 +23°C° 0 mm 1 mps 753 mmHg 71%
07:00 +25°C° 0 mm 1 mps 753 mmHg 64%
08:00 +26°C° 0 mm 2 mps 753 mmHg 57%
09:00 +28°C° 0 mm 2 mps 753 mmHg 49%
10:00 +29°C° 0 mm 2 mps 752 mmHg 46%
11:00 +30°C° 0 mm 2 mps 752 mmHg 42%
12:00 +31°C° 0 mm 2 mps 752 mmHg 38%
13:00 +31°C° 0 mm 2 mps 751 mmHg 39%
14:00 +31°C° 0 mm 3 mps 751 mmHg 40%
15:00 +31°C° 0 mm 3 mps 750 mmHg 40%
16:00 +30°C° 0 mm 3 mps 750 mmHg 45%
17:00 +29°C° 0 mm 3 mps 750 mmHg 50%
18:00 +28°C° 0 mm 3 mps 749 mmHg 55%
19:00 +27°C° 0 mm 3 mps 749 mmHg 57%
20:00 +27°C° 0 mm 3 mps 749 mmHg 60%
21:00 +26°C° 0 mm 3 mps 749 mmHg 63%
22:00 +25°C° 0 mm 3 mps 749 mmHg 65%
23:00 +25°C° 0 mm 3 mps 749 mmHg 67%
Show more